1487408400.37,33535,11.81,73226.8,-9.15,-9.57,-11.29,0,*6E
1487408401.63,33536,11.81,73226.0,-9.15,-10.01,-11.51,0,*59
1487408402.88,33537,11.75,73226.3,-9.15,-9.83,-11.41,0,*6B
1487408404.11,33538,11.81,73226.3,-9.13,-9.31,-11.33,0,*6E
1487408405.37,33539,11.81,73228.5,-9.13,-9.11,-11.33,0,*6D
1487408406.62,33540,11.81,73228.0,-9.11,-8.33,-11.33,0,*60
1487408407.92,33541,11.81,73230.5,-9.11,-8.07,-11.07,0,*61
1487408409.15,33542,11.81,73230.5,-9.13,-8.03,-10.97,0,*6C
1487408410.44,33543,11.75,73222.8,-9.11,-8.03,-11.07,0,*67
1487408411.65,33544,11.75,73226.0,-9.13,-8.17,-11.11,0,*60
1487408412.91,33545,11.75,73222.8,-9.11,-8.59,-11.59,0,*65
1487408414.14,33546,11.75,73222.5,-9.13,-8.75,-11.51,0,*62
1487408415.43,33547,11.75,73226.5,-9.11,-9.15,-11.73,0,*66
1487408416.71,33548,11.75,73226.0,-9.11,-9.57,-11.59,0,*67
1487408417.95,33549,11.75,73226.8,-9.11,-10.15,-11.45,0,*55
1487408419.24,33550,11.81,73224.5,-9.11,-10.41,-11.33,0,*5D
1487408420.48,33551,11.81,73228.5,-9.11,-9.79,-11.23,0,*6E
1487408421.69,33552,11.75,73226.8,-9.13,-10.01,-11.45,0,*58
1487408422.96,33553,11.75,73226.3,-9.11,-10.67,-11.45,0,*5B
1487408424.22,33554,11.75,73224.3,-9.11,-10.53,-11.33,0,*5A
1487408425.46,33555,11.75,73226.3,-9.09,-10.19,-11.29,0,*57
1487408426.67,33556,11.75,73226.3,-9.09,-10.05,-11.19,0,*5A
1487408427.88,33557,11.75,73224.3,-9.09,-9.97,-11.15,0,*64
1487408429.14,33558,11.81,73226.8,-9.07,-10.23,-11.55,0,*56
1487408430.35,33559,11.81,73228.8,-9.09,-10.09,-11.45,0,*50
1487408431.57,33560,11.75,73226.3,-9.09,-11.15,-11.45,0,*56
1487408432.82,33561,11.75,73226.3,-9.09,-11.01,-11.29,0,*58
1487408434.1,33562,11.75,73228.5,-9.07,-11.07,-11.33,0,*58
1487408435.33,33563,11.81,73228.0,-9.07,-11.19,-11.45,0,*57
1487408436.59,33564,11.75,73228.0,-9.07,-10.93,-11.29,0,*59
1487408437.88,33565,11.81,73228.0,-9.07,-10.71,-11.33,0,*5F
1487408439.11,33566,11.75,73228.5,-9.07,-10.09,-11.41,0,*56
1487408440.35,33567,11.75,73226.3,-9.05,-10.15,-11.51,0,*59
1487408441.61,33568,11.75,73226.0,-9.05,-10.41,-11.51,0,*57
1487408442.88,33569,11.75,73222.8,-9.05,-10.41,-11.29,0,*59
1487408444.09,33570,11.81,73228.3,-9.05,-10.31,-11.23,0,*5C
1487408445.38,33571,11.75,73226.8,-9.03,-10.41,-11.37,0,*59
1487408446.64,33572,11.75,73224.8,-9.05,-10.71,-11.51,0,*5F
1487408447.93,33573,11.75,73226.8,-9.03,-10.67,-11.37,0,*5F
1487408449.2,33574,11.75,73228.0,-9.03,-10.19,-11.29,0,*5E
1487408450.47,33575,11.75,73224.8,-9.03,-10.97,-11.63,0,*57
1487408451.74,33576,11.81,73228.3,-9.03,-10.97,-11.73,0,*55
1487408453.0,33577,11.75,73226.3,-9.03,-10.85,-11.51,0,*57
1487408454.26,33578,11.81,73230.8,-9.05,-10.79,-11.85,0,*54
1487408455.52,33579,11.75,73228.8,-9.03,-11.11,-11.81,0,*58
1487408456.81,33580,11.81,73232.3,-9.03,-11.73,-12.11,0,*50
1487408458.07,33581,11.75,73228.8,-9.05,-11.63,-11.97,0,*5B
1487408459.32,33582,11.75,73230.3,-9.05,-11.85,-12.21,0,*5E
1487408460.58,33583,11.75,73230.8,-9.05,-11.73,-12.07,0,*52
1487408461.85,33584,11.75,73232.3,-9.05,-11.55,-11.93,0,*5F
1487408463.11,33585,11.75,73232.3,-9.05,-11.73,-12.07,0,*54
1487408464.35,33586,11.75,73234.3,-9.05,-11.85,-12.21,0,*5A
1487408465.62,33587,11.75,73230.3,-9.05,-11.97,-12.11,0,*5B
1487408466.91,33588,11.75,73230.0,-9.07,-11.85,-11.89,0,*57
1487408468.17,33589,11.75,73230.0,-9.09,-12.15,-12.11,0,*50
1487408469.46,33590,11.75,73232.0,-9.07,-11.97,-11.97,0,*52
1487408470.73,33591,11.75,73228.5,-9.09,-11.85,-11.85,0,*5D
1487408472.01,33592,11.75,73228.5,-9.07,-11.73,-11.59,0,*58
1487408473.29,33593,11.75,73228.0,-9.07,-11.97,-11.97,0,*51
1487408474.53,33594,11.75,73228.8,-9.07,-12.03,-12.03,0,*56
1487408475.81,33595,11.75,73226.8,-9.07,-11.77,-11.73,0,*53
1487408477.06,33596,11.75,73230.8,-9.05,-12.21,-12.07,0,*52
1487408478.34,33597,11.75,73230.5,-9.07,-11.97,-11.97,0,*55
1487408479.6,33598,11.75,73232.5,-9.07,-12.57,-12.43,0,*5F
1487408480.86,33599,11.81,73232.0,-9.05,-12.65,-12.65,0,*59
1487408482.13,33600,11.75,73228.5,-9.09,-12.65,-12.57,0,*57
1487408483.36,33601,11.75,73228.3,-9.07,-12.03,-12.03,0,*59
1487408484.63,33602,11.75,73234.0,-9.09,-11.85,-11.77,0,*59
1487408485.9,33603,11.75,73228.5,-9.09,-11.89,-11.89,0,*55
1487408487.17,33604,11.75,73228.0,-9.09,-11.97,-11.85,0,*51
1487408488.41,33605,11.75,73230.8,-9.09,-12.11,-12.03,0,*50
1487408489.68,33606,11.75,73228.3,-9.09,-11.89,-11.89,0,*50
1487408490.96,33607,11.75,73230.0,-9.09,-11.97,-11.89,0,*5E
1487408492.23,33608,11.75,73234.8,-9.09,-12.15,-12.11,0,*5A
1487408493.49,33609,11.75,73226.0,-9.09,-12.57,-12.57,0,*5F
1487408494.76,33610,11.75,73226.5,-9.09,-12.57,-12.57,0,*57
1487408495.98,33611,11.75,73228.3,-9.09,-12.43,-12.43,0,*56
1487408497.25,33612,11.75,73230.8,-9.11,-12.43,-12.35,0,*5D
1487408498.48,33613,11.75,73234.8,-9.11,-12.43,-12.43,0,*5D
1487408499.75,33614,11.75,73232.0,-9.11,-12.57,-12.47,0,*5B
1487408501.05,33615,11.75,73232.5,-9.11,-12.71,-12.75,0,*5F
1487408502.29,33616,11.75,73232.3,-9.11,-12.47,-12.47,0,*58
1487408503.5,33617,11.75,73230.8,-9.13,-12.43,-12.29,0,*57
1487408504.77,33618,11.81,73234.3,-9.13,-11.93,-11.81,0,*57
1487408506.04,33619,11.75,73232.3,-9.13,-12.07,-12.07,0,*55
1487408507.31,33620,11.75,73230.0,-9.13,-12.07,-12.15,0,*5C
1487408508.55,33621,11.75,73228.5,-9.13,-12.21,-12.07,0,*5A
1487408509.85,33622,11.75,73230.3,-9.11,-12.15,-12.07,0,*5C
1487408511.09,33623,11.75,73230.8,-9.13,-12.21,-12.15,0,*5B
1487408512.31,33624,11.75,73230.5,-9.13,-12.29,-12.29,0,*5B
1487408513.56,33625,11.75,73230.0,-9.13,-12.07,-12.03,0,*5E
1487408514.83,33626,11.75,73228.5,-9.13,-11.93,-11.89,0,*52
1487408516.11,33627,11.75,73224.8,-9.13,-11.93,-11.89,0,*53
1487408517.36,33628,11.75,73228.5,-9.13,-11.81,-11.77,0,*5E
1487408518.62,33629,11.75,73226.3,-9.13,-11.73,-11.73,0,*56
1487408519.92,33630,11.75,73226.0,-9.11,-11.77,-11.63,0,*59
1487408521.19,33631,11.75,73224.5,-9.13,-11.73,-11.63,0,*5E
1487408522.48,33632,11.75,73226.3,-9.11,-11.73,-11.63,0,*5F
1487408523.74,33633,11.75,73230.3,-9.13,-11.73,-11.59,0,*55
1487408525.03,33634,11.75,73226.5,-9.11,-11.59,-11.51,0,*50
1487408526.32,33635,11.75,73230.5,-9.11,-11.51,-11.51,0,*59
1487408527.59,33636,11.75,73224.3,-9.11,-11.51,-11.45,0,*5F
1487408528.86,33637,11.75,73226.0,-9.09,-11.67,-11.55,0,*53
1487408530.12,33638,11.75,73228.0,-9.09,-11.55,-11.33,0,*5D
1487408531.39,33639,11.75,73230.5,-9.07,-11.41,-11.29,0,*5C
1487408532.65,33640,11.75,73230.0,-9.07,-11.55,-11.41,0,*59
1487408533.9,33641,11.75,73226.3,-9.07,-11.45,-11.41,0,*59
1487408535.17,33642,11.75,73224.5,-9.09,-11.67,-11.67,0,*50
1487408536.45,33643,11.75,73228.8,-9.07,-11.73,-11.67,0,*5A
1487408537.74,33644,11.75,73228.0,-9.07,-11.55,-11.55,0,*58
1487408539.02,33645,11.75,73226.8,-9.07,-11.33,-11.33,0,*59
1487408540.28,33646,11.81,73228.8,-9.05,-11.55,-11.51,0,*5C
1487408541.54,33647,11.75,73228.8,-9.05,-11.51,-11.51,0,*59
1487408542.8,33648,11.75,73230.3,-9.05,-11.37,-11.37,0,*56
1487408544.07,33649,11.75,73228.5,-9.05,-11.55,-11.55,0,*57
1487408545.31,33650,11.75,73228.0,-9.05,-11.51,-11.41,0,*5E
1487408546.57,33651,11.75,73230.8,-9.03,-11.51,-11.41,0,*59
1487408547.84,33652,11.75,73228.3,-9.03,-11.41,-11.37,0,*5A
1487408549.13,33653,11.75,73230.3,-9.03,-11.63,-11.63,0,*5A
1487408550.41,33654,11.75,73228.3,-9.05,-11.63,-11.63,0,*5B
1487408551.7,33655,11.75,73226.0,-9.03,-11.67,-11.63,0,*58
1487408553.0,33656,11.75,73224.5,-9.03,-11.63,-11.63,0,*5F
1487408554.29,33657,11.75,73228.0,-9.03,-11.55,-11.51,0,*5A
1487408555.58,33658,11.75,73228.0,-9.03,-11.55,-11.55,0,*51
1487408556.87,33659,11.75,73230.3,-9.03,-11.73,-11.63,0,*51
1487408558.1,33660,11.75,73226.3,-8.97,-11.45,-11.33,0,*57
1487408559.38,33661,11.75,73226.5,-8.99,-11.33,-11.33,0,*59
1487408560.64,33662,11.75,73224.0,-8.99,-11.33,-11.23,0,*5B
1487408561.92,33663,11.75,73226.8,-8.99,-11.37,-11.33,0,*5F
1487408563.16,33664,11.75,73224.0,-8.99,-11.23,-11.23,0,*5C
1487408564.39,33665,11.75,73226.5,-8.97,-11.37,-11.23,0,*56
1487408565.62,33666,11.75,73226.0,-8.97,-11.51,-11.45,0,*55
1487408566.89,33667,11.75,73228.3,-8.97,-11.59,-11.59,0,*51
1487408568.15,33668,11.75,73228.0,-8.97,-11.63,-11.59,0,*57
1487408569.41,33669,11.75,73228.8,-8.97,-11.67,-11.67,0,*5F
1487408570.68,33670,11.75,73230.5,-8.97,-11.89,-11.89,0,*57
1487408571.94,33671,11.75,73228.5,-8.95,-11.55,-11.45,0,*55
1487408573.15,33672,11.75,73230.3,-8.97,-12.03,-12.03,0,*55
1487408574.44,33673,11.75,73226.8,-8.95,-12.11,-12.11,0,*56
1487408575.66,33674,11.75,73230.5,-8.97,-12.29,-12.29,0,*53
1487408576.92,33675,11.75,73226.8,-8.99,-12.35,-12.29,0,*51
1487408578.16,33676,11.75,73230.3,-8.97,-12.35,-12.29,0,*5C
1487408579.4,33677,11.75,73228.3,-8.99,-12.29,-12.29,0,*5E
1487408580.63,33678,11.75,73226.3,-8.99,-12.43,-12.43,0,*51
1487408581.9,33679,11.75,73226.5,-8.99,-12.35,-12.29,0,*5D
1487408583.14,33680,11.75,73228.0,-9.03,-12.25,-12.21,0,*50
1487408584.43,33681,11.75,73228.8,-9.03,-12.07,-11.97,0,*5F
1487408585.65,33682,11.75,73226.8,-9.05,-12.25,-12.25,0,*50
1487408586.89,33683,11.75,73222.3,-9.03,-12.25,-12.25,0,*57
1487408588.18,33684,11.75,73224.3,-9.03,-12.07,-11.97,0,*5A
1487408589.48,33685,11.75,73226.8,-9.03,-11.93,-11.93,0,*51
1487408590.74,33686,11.75,73226.0,-9.05,-12.07,-12.07,0,*54
1487408592.01,33687,11.75,73226.3,-9.05,-12.07,-11.93,0,*5B
1487408593.3,33688,11.75,73224.5,-9.03,-11.85,-11.73,0,*55
1487408594.58,33689,11.75,73226.3,-9.03,-11.81,-11.73,0,*50
1487408595.87,33690,11.75,73222.5,-9.03,-11.73,-11.63,0,*54
1487408597.17,33691,11.75,73220.3,-9.03,-11.67,-11.63,0,*50
1487408598.46,33692,11.75,73220.0,-9.03,-11.63,-11.63,0,*57
1487408599.76,33693,11.75,73222.3,-9.03,-11.63,-11.55,0,*53
1487408601.04,33694,11.75,73220.0,-8.99,-11.51,-11.51,0,*53
1487408602.32,33695,11.75,73222.3,-8.99,-11.51,-11.51,0,*52
1487408603.6,33696,11.75,73222.5,-8.99,-11.63,-11.51,0,*50
1487408604.88,33697,11.75,73220.8,-8.99,-11.51,-11.51,0,*50
1487408606.17,33698,11.75,73220.8,-8.99,-11.89,-11.81,0,*57
1487408607.46,33699,11.75,73218.3,-8.99,-11.93,-11.89,0,*55
1487408608.75,33700,11.75,73220.5,-8.99,-11.93,-11.89,0,*54
1487408610.02,33701,11.75,73222.3,-8.97,-11.63,-11.59,0,*59
1487408611.31,33702,11.75,73216.8,-8.99,-11.59,-11.63,0,*54
1487408612.57,33703,11.75,73218.5,-8.97,-11.63,-11.67,0,*56
1487408613.83,33704,11.75,73218.8,-8.97,-11.81,-11.67,0,*5D
1487408615.1,33705,11.75,73218.3,-8.97,-11.77,-11.67,0,*55
1487408616.39,33706,11.75,73216.0,-8.99,-11.77,-11.63,0,*5C
1487408617.67,33707,11.75,73218.3,-8.99,-11.59,-11.59,0,*58
1487408618.93,33708,11.75,73220.3,-8.97,-11.63,-11.51,0,*58
1487408620.19,33709,11.75,73218.3,-8.97,-11.51,-11.37,0,*58
1487408621.43,33710,11.75,73216.0,-8.97,-11.33,-11.23,0,*51
1487408622.66,33711,11.75,73216.8,-8.97,-11.37,-11.19,0,*5D
1487408623.92,33712,11.75,73220.8,-8.97,-11.51,-11.37,0,*52
1487408625.18,33713,11.75,73220.5,-8.97,-11.59,-11.51,0,*5B
1487408626.42,33714,11.75,73222.8,-8.97,-11.59,-11.45,0,*59
1487408627.68,33715,11.75,73220.5,-8.97,-11.59,-11.51,0,*5D
1487408628.92,33716,11.75,73220.0,-8.97,-11.59,-11.45,0,*5B
1487408630.21,33717,11.75,73220.8,-8.95,-11.59,-11.55,0,*59
1487408631.47,33718,11.75,73220.5,-8.93,-11.97,-11.85,0,*5F
1487408632.75,33719,11.75,73222.0,-8.95,-11.89,-11.85,0,*57
1487408634.01,33720,11.75,73224.0,-8.97,-11.81,-11.77,0,*5A
1487408635.26,33721,11.75,73224.0,-8.97,-11.89,-11.81,0,*5A
1487408636.52,33722,11.75,73224.3,-8.97,-11.81,-11.77,0,*58
1487408637.77,33723,11.75,73222.8,-8.97,-11.81,-11.81,0,*50
1487408639.04,33724,11.75,73224.5,-8.97,-11.93,-11.89,0,*5C
1487408640.31,33725,11.75,73226.8,-8.97,-12.07,-12.07,0,*56
1487408641.57,33726,11.75,73226.8,-8.99,-12.35,-12.29,0,*56
1487408642.86,33727,11.75,73222.3,-8.99,-12.15,-12.15,0,*5A
1487408644.09,33728,11.75,73222.3,-8.97,-12.03,-11.89,0,*5A
1487408645.38,33729,11.75,73228.5,-8.99,-12.07,-12.07,0,*54
1487408646.65,33730,11.75,73228.8,-8.99,-12.21,-12.07,0,*58
1487408647.94,33731,11.75,73228.5,-8.99,-11.93,-11.81,0,*5E
1487408649.22,33732,11.75,73232.0,-8.99,-11.77,-11.67,0,*5F
1487408650.51,33733,11.75,73228.5,-8.99,-11.59,-11.59,0,*5F
1487408651.8,33734,11.75,73232.0,-8.99,-12.07,-12.07,0,*58
1487408653.04,33735,11.75,73230.3,-8.99,-12.21,-12.21,0,*59
1487408654.33,33736,11.75,73232.8,-8.99,-12.07,-12.07,0,*5A
1487408655.62,33737,11.75,73234.8,-9.03,-11.97,-12.07,0,*53
1487408656.88,33738,11.75,73232.8,-9.05,-11.97,-11.85,0,*53
1487408658.17,33739,11.75,73232.0,-9.03,-12.07,-12.11,0,*50
1487408659.39,33740,11.75,73234.5,-9.05,-12.21,-12.25,0,*5B
1487408660.66,33741,11.75,73230.5,-9.05,-12.11,-12.11,0,*5E
1487408661.95,33742,11.75,73232.5,-9.03,-11.93,-11.97,0,*5F
1487408663.22,33743,11.75,73232.0,-9.05,-12.11,-12.07,0,*5B
1487408664.51,33744,11.75,73232.3,-9.03,-11.93,-11.97,0,*59
1487408665.8,33745,11.75,73230.8,-9.03,-11.81,-11.85,0,*58
1487408667.05,33746,11.75,73234.5,-9.05,-11.81,-11.81,0,*59
1487408668.32,33747,11.75,73232.3,-9.05,-11.63,-11.63,0,*58
1487408669.59,33748,11.75,73230.5,-9.05,-11.93,-11.85,0,*50
1487408670.87,33749,11.75,73232.0,-9.05,-11.93,-11.93,0,*56
1487408672.15,33750,11.75,73232.8,-9.03,-11.85,-11.85,0,*58
1487408673.42,33751,11.75,73230.3,-9.05,-12.07,-11.97,0,*55
1487408674.69,33752,11.75,73234.5,-9.05,-11.97,-11.93,0,*58
1487408675.95,33753,11.75,73228.3,-9.05,-11.81,-11.85,0,*59
1487408677.21,33754,11.75,73230.0,-9.05,-11.85,-11.81,0,*5E
1487408678.5,33755,11.75,73228.3,-9.03,-11.93,-11.85,0,*5A
1487408679.76,33756,11.75,73230.3,-9.05,-11.85,-11.85,0,*58
1487408681.03,33757,11.75,73232.3,-9.05,-11.73,-11.67,0,*5C
1487408682.3,33758,11.75,73232.3,-9.05,-11.63,-11.63,0,*56
1487408683.59,33759,11.75,73234.0,-9.03,-11.55,-11.63,0,*54
1487408684.88,33760,11.75,73234.0,-9.03,-11.51,-11.51,0,*5B
1487408686.12,33761,11.75,73234.0,-9.05,-11.37,-11.41,0,*5D
1487408687.38,33762,11.75,73234.5,-9.03,-11.41,-11.55,0,*5C
1487408688.63,33763,11.75,73232.8,-9.05,-11.51,-11.41,0,*5F
1487408689.91,33764,11.75,73232.3,-9.03,-11.37,-11.37,0,*5F
1487408691.17,33765,11.75,73230.5,-9.03,-11.37,-11.41,0,*5F
1487408692.44,33766,11.75,73232.8,-8.99,-11.45,-11.51,0,*5A
1487408693.71,33767,11.75,73234.0,-8.99,-11.81,-11.81,0,*5E
1487408695.01,33768,11.75,73236.0,-8.99,-11.59,-11.63,0,*58
1487408696.3,33769,11.75,73232.3,-8.99,-11.59,-11.63,0,*59
1487408697.56,33770,11.75,73238.5,-8.97,-12.07,-12.07,0,*56
1487408698.84,33771,11.75,73234.3,-8.99,-11.81,-11.81,0,*59
1487408700.1,33772,11.75,73234.5,-8.99,-11.89,-12.03,0,*5B
1487408701.34,33773,11.75,73236.3,-8.99,-12.29,-12.29,0,*5B
1487408702.57,33774,11.75,73238.5,-8.99,-12.43,-12.43,0,*5C
1487408703.86,33775,11.75,73238.8,-8.99,-12.35,-12.35,0,*5D
1487408705.11,33776,11.75,73236.5,-8.99,-12.29,-12.21,0,*56
1487408706.4,33777,11.75,73238.8,-9.03,-12.35,-12.35,0,*5D
1487408707.64,33778,11.75,73238.5,-9.03,-12.47,-12.39,0,*5B
1487408708.88,33779,11.75,73232.0,-9.05,-12.35,-12.25,0,*54
1487408710.15,33780,11.75,73238.8,-9.05,-11.97,-11.93,0,*57
1487408711.44,33781,11.75,73236.0,-9.03,-11.93,-11.93,0,*54
1487408712.66,33782,11.81,73236.8,-9.05,-12.25,-12.25,0,*51
1487408713.9,33783,11.75,73234.5,-9.05,-12.35,-12.25,0,*51
1487408715.17,33784,11.75,73234.8,-9.05,-12.35,-12.35,0,*57
1487408716.39,33785,11.75,73232.8,-9.05,-12.47,-12.47,0,*56
1487408717.66,33786,11.75,73232.5,-9.05,-12.79,-12.71,0,*5D
1487408718.95,33787,11.75,73232.0,-9.07,-12.75,-12.71,0,*52
1487408720.21,33788,11.75,73228.3,-9.07,-12.97,-13.01,0,*57
1487408721.45,33789,11.75,73234.0,-9.07,-13.23,-13.23,0,*58
1487408722.73,33790,11.75,73234.5,-9.07,-13.01,-13.01,0,*50
1487408723.95,33791,11.75,73230.0,-9.09,-12.89,-12.89,0,*5F
1487408725.24,33792,11.75,73228.8,-9.11,-12.61,-12.57,0,*50
1487408726.53,33793,11.75,73226.0,-9.11,-12.71,-12.61,0,*55
1487408727.79,33794,11.75,73228.5,-9.13,-12.61,-12.57,0,*54
1487408729.06,33795,11.75,73228.3,-9.13,-12.75,-12.75,0,*50
1487408730.33,33796,11.75,73224.3,-9.13,-12.75,-12.61,0,*56
1487408731.59,33797,11.75,73226.8,-9.13,-12.75,-12.65,0,*53
1487408732.84,33798,11.75,73226.3,-9.11,-12.29,-12.29,0,*5F
1487408734.11,33799,11.75,73230.3,-9.13,-12.15,-12.07,0,*5F
1487408735.33,33800,11.81,73230.0,-9.13,-12.29,-12.21,0,*5B
1487408736.58,33801,11.75,73224.5,-9.13,-12.21,-12.07,0,*56
1487408737.87,33802,11.75,73224.3,-9.11,-12.07,-11.93,0,*5D
1487408739.14,33803,11.81,73228.8,-9.13,-11.77,-11.63,0,*55
1487408740.44,33804,11.75,73226.5,-9.11,-11.73,-11.63,0,*54
1487408741.73,33805,11.75,73220.5,-9.11,-11.73,-11.63,0,*55
1487408743.02,33806,11.81,73224.5,-9.11,-11.89,-11.77,0,*56
1487408744.28,33807,11.75,73224.0,-9.13,-11.81,-11.77,0,*5D
1487408745.57,33808,11.75,73222.3,-9.11,-11.77,-11.63,0,*5C
1487408746.84,33809,11.75,73222.3,-9.13,-11.59,-11.51,0,*52
1487408748.14,33810,11.75,73220.8,-9.11,-11.63,-11.63,0,*50
1487408749.43,33811,11.75,73220.5,-9.11,-11.77,-11.73,0,*55
1487408750.72,33812,11.75,73220.5,-9.11,-11.77,-11.73,0,*56
1487408752.01,33813,11.75,73222.8,-9.11,-11.81,-11.73,0,*5E
1487408753.25,33814,11.75,73220.8,-9.13,-12.03,-11.89,0,*57
1487408754.54,33815,11.75,73224.8,-9.11,-12.07,-11.93,0,*5B
1487408755.78,33816,11.75,73224.5,-9.11,-12.03,-12.03,0,*56
1487408757.07,33817,11.75,73224.3,-9.11,-11.81,-11.77,0,*5E
1487408758.33,33818,11.75,73222.0,-9.13,-11.81,-11.73,0,*57
1487408759.59,33819,11.75,73226.5,-9.09,-11.73,-11.73,0,*50
1487408760.87,33820,11.75,73226.3,-9.09,-11.67,-11.67,0,*5A
1487408762.13,33821,11.75,73226.8,-9.09,-11.85,-11.77,0,*56
1487408763.41,33822,11.75,73226.8,-9.11,-11.81,-11.77,0,*58
1487408764.7,33823,11.75,73230.0,-9.11,-11.77,-11.77,0,*50
1487408765.99,33824,11.75,73228.3,-9.11,-11.81,-11.89,0,*5F
1487408767.28,33825,11.75,73228.3,-9.11,-11.81,-11.81,0,*56
1487408768.54,33826,11.75,73228.3,-9.11,-12.03,-11.93,0,*5F
1487408769.84,33827,11.75,73228.5,-9.11,-11.89,-11.89,0,*54
1487408771.12,33828,11.75,73228.8,-9.11,-11.81,-11.81,0,*5B
1487408772.39,33829,11.75,73230.3,-9.09,-11.67,-11.67,0,*53
1487408773.66,33830,11.75,73230.3,-9.09,-11.73,-11.73,0,*5B
1487408774.93,33831,11.75,73232.0,-9.09,-11.77,-11.73,0,*5E
1487408776.19,33832,11.75,73230.3,-9.09,-11.97,-11.85,0,*5A
1487408777.46,33833,11.75,73228.3,-9.09,-12.11,-12.11,0,*58
1487408778.68,33834,11.75,73230.0,-9.09,-12.03,-12.03,0,*5F
1487408779.95,33835,11.75,73230.5,-9.09,-11.97,-11.85,0,*5D
1487408781.22,33836,11.75,73228.8,-9.09,-11.89,-11.77,0,*5C
1487408782.48,33837,11.75,73232.8,-9.09,-11.85,-11.73,0,*55
1487408783.77,33838,11.75,73232.0,-9.07,-12.11,-11.97,0,*50
1487408785.04,33839,11.75,73230.5,-9.09,-11.89,-11.85,0,*5E
1487408786.32,33840,11.75,73230.0,-9.07,-11.73,-11.67,0,*57
1487408787.61,33841,11.75,73226.5,-9.07,-11.67,-11.59,0,*5E
1487408788.87,33842,11.75,73228.5,-9.09,-11.77,-11.67,0,*5F
1487408790.16,33843,11.75,73228.0,-9.07,-11.67,-11.59,0,*5C
1487408791.42,33844,11.75,73228.8,-9.07,-11.67,-11.45,0,*56
1487408792.71,33845,11.75,73226.0,-9.07,-11.55,-11.55,0,*57
1487408794.0,33846,11.75,73222.5,-9.07,-11.59,-11.59,0,*54
1487408795.28,33847,11.75,73224.3,-9.07,-11.59,-11.59,0,*55
1487408796.54,33848,11.75,73226.8,-9.05,-11.51,-11.37,0,*58
1487408797.79,33849,11.75,73222.8,-9.05,-11.55,-11.41,0,*5C
1487408799.05,33850,11.75,73224.3,-9.05,-11.51,-11.51,0,*51
1487408800.31,33851,11.75,73224.3,-9.05,-11.67,-11.67,0,*50
1487408801.6,33852,11.75,73222.3,-9.03,-11.67,-11.73,0,*50
1487408802.87,33853,11.75,73226.8,-9.05,-11.67,-11.73,0,*57
1487408804.16,33854,11.75,73224.8,-9.03,-11.63,-11.55,0,*56
1487408805.45,33855,11.75,73226.5,-9.03,-11.67,-11.63,0,*56
1487408806.75,33856,11.75,73222.8,-9.03,-11.63,-11.55,0,*54
1487408808.03,33857,11.75,73222.0,-9.03,-11.51,-11.51,0,*50
1487408809.33,33858,11.75,73222.5,-9.03,-11.67,-11.63,0,*5B
1487408810.62,33859,11.75,73222.5,-9.03,-11.93,-11.81,0,*5D
1487408811.9,33860,11.75,73224.8,-9.03,-11.85,-11.85,0,*54
1487408813.2,33861,11.75,73222.5,-9.03,-12.07,-11.93,0,*5B
1487408814.49,33862,11.75,73226.8,-9.03,-11.93,-11.85,0,*51
1487408815.78,33863,11.75,73224.8,-9.03,-12.07,-12.11,0,*50
1487408817.07,33864,11.75,73224.3,-9.03,-11.93,-11.81,0,*53
1487408818.33,33865,11.75,73228.3,-9.05,-11.97,-11.97,0,*57
1487408819.6,33866,11.75,73228.8,-9.05,-12.11,-12.11,0,*54
1487408820.88,33867,11.75,73226.5,-9.05,-11.93,-11.93,0,*55
1487408822.15,33868,11.75,73230.8,-9.03,-12.21,-12.11,0,*5F
1487408823.43,33869,11.75,73228.3,-9.03,-12.11,-11.97,0,*50
1487408824.73,33870,11.75,73230.0,-9.03,-11.93,-11.85,0,*52
1487408826.02,33871,11.75,73230.3,-9.03,-12.11,-12.11,0,*54
1487408827.31,33872,11.75,73228.0,-9.03,-11.93,-11.85,0,*50
1487408828.58,33873,11.75,73228.0,-9.05,-12.07,-12.11,0,*57
1487408829.82,33874,11.75,73228.5,-9.05,-12.61,-12.47,0,*53
1487408831.06,33875,11.75,73228.3,-9.05,-12.39,-12.35,0,*5A
1487408832.33,33876,11.75,73224.3,-9.05,-12.35,-12.35,0,*55
1487408833.58,33877,11.81,73228.5,-9.05,-12.21,-12.11,0,*57
1487408834.84,33878,11.75,73228.5,-9.05,-11.97,-11.93,0,*5F
1487408836.11,33879,11.75,73224.5,-9.07,-12.11,-12.03,0,*5B
1487408837.37,33880,11.81,73230.3,-9.05,-12.07,-11.93,0,*52
1487408838.66,33881,11.75,73228.0,-9.03,-11.97,-11.85,0,*58
1487408839.93,33882,11.75,73230.3,-9.05,-11.93,-11.81,0,*5D
1487408841.2,33883,11.75,73228.3,-9.05,-11.93,-11.93,0,*5F
1487408842.47,33884,11.75,73228.8,-9.05,-11.97,-11.93,0,*5C
1487408843.73,33885,11.75,73230.3,-9.05,-11.85,-11.85,0,*59
1487408844.99,33886,11.75,73232.3,-9.07,-12.03,-11.97,0,*56
1487408846.28,33887,11.81,73232.3,-9.07,-12.11,-11.97,0,*54
1487408847.51,33888,11.75,73226.3,-9.07,-12.03,-12.03,0,*56
1487408848.77,33889,11.75,73224.8,-9.07,-12.03,-11.97,0,*59
1487408850.03,33890,11.75,73228.5,-9.07,-12.03,-11.89,0,*5E
1487408851.32,33891,11.75,73226.3,-9.07,-12.11,-12.11,0,*5E
1487408852.6,33892,11.75,73228.5,-9.07,-11.73,-11.77,0,*59
1487408853.88,33893,11.75,73228.3,-9.07,-11.67,-11.67,0,*5C
1487408855.17,33894,11.75,73228.0,-9.07,-11.59,-11.59,0,*5B
1487408856.46,33895,11.75,73228.3,-9.07,-11.55,-11.59,0,*56
1487408857.72,33896,11.75,73230.3,-9.05,-11.55,-11.55,0,*5B
1487408858.99,33897,11.81,73228.8,-9.05,-11.73,-11.67,0,*5F
1487408860.21,33898,11.75,73226.0,-9.05,-11.41,-11.41,0,*55
1487408861.45,33899,11.75,73230.5,-9.05,-11.29,-11.23,0,*5E
1487408862.72,33900,11.75,73228.5,-9.03,-11.29,-11.15,0,*5C
1487408863.96,33901,11.75,73230.3,-9.03,-11.23,-11.23,0,*52
1487408865.19,33902,11.75,73228.3,-9.03,-11.11,-11.11,0,*51
1487408866.42,33903,11.81,73230.8,-8.99,-11.11,-11.11,0,*52
1487408867.69,33904,11.81,73230.0,-8.99,-11.11,-11.07,0,*52
1487408868.95,33905,11.75,73228.3,-8.99,-11.07,-10.97,0,*5C
1487408870.18,33906,11.75,73230.3,-8.99,-10.85,-10.85,0,*57
1487408871.39,33907,11.75,73230.3,-8.97,-11.11,-11.19,0,*50
1487408872.6,33908,11.75,73228.3,-8.97,-11.19,-11.19,0,*57
1487408873.84,33909,11.81,73230.3,-8.97,-11.07,-10.97,0,*5E
1487408875.06,33910,11.75,73230.5,-8.97,-10.97,-10.97,0,*5E
1487408876.3,33911,11.75,73230.5,-8.97,-11.07,-11.11,0,*58
1487408877.54,33912,11.81,73230.5,-8.95,-11.01,-11.01,0,*5E
1487408878.77,33913,11.75,73230.0,-8.93,-11.19,-11.29,0,*5A
1487408880.05,33914,11.75,73230.3,-8.95,-11.33,-11.33,0,*58
1487408881.29,33915,11.81,73232.8,-8.93,-11.19,-11.29,0,*5C
1487408882.54,33916,11.81,73234.8,-8.93,-11.33,-11.33,0,*5C
1487408883.79,33917,11.81,73232.3,-8.95,-11.41,-11.41,0,*5B
1487408885.02,33918,11.75,73232.0,-8.93,-11.19,-11.29,0,*51
1487408886.26,33919,11.75,73232.5,-8.95,-11.41,-11.45,0,*51
1487408887.5,33920,11.75,73234.0,-8.95,-11.45,-11.45,0,*5F
1487408888.79,33921,11.75,73234.0,-8.95,-11.55,-11.55,0,*5E
1487408890.03,33922,11.75,73232.8,-8.95,-11.41,-11.45,0,*59
1487408891.32,33923,11.75,73234.0,-8.95,-11.29,-11.29,0,*5C
1487408892.55,33924,11.75,73236.3,-8.93,-11.19,-11.29,0,*5E
1487408893.76,33925,11.81,73238.0,-8.93,-11.15,-11.15,0,*5C
1487408895.01,33926,11.75,73234.5,-8.93,-11.41,-11.55,0,*5A
1487408896.27,33927,11.75,73238.5,-8.93,-11.85,-11.85,0,*5E
1487408897.55,33928,11.75,73236.3,-8.95,-12.11,-12.11,0,*57
1487408898.79,33929,11.75,73234.5,-8.95,-12.03,-12.03,0,*56
1487408900.05,33930,11.75,73232.8,-8.93,-11.77,-11.85,0,*55
1487408901.34,33931,11.75,73238.5,-8.95,-11.85,-11.89,0,*53
1487408902.62,33932,11.75,73232.8,-8.95,-11.77,-11.73,0,*58
1487408903.9,33933,11.75,73232.3,-8.95,-11.73,-11.77,0,*59
1487408905.16,33934,11.75,73236.0,-8.93,-11.73,-11.73,0,*5C